Wetbulb
59.21 59.85 60.23 61.32 61.65 61.66 62.12 62.38 62.84 62.92 62.97 62.99 63.58 63.03 62.53 61.71 62.28 59.56 55.10 59.58 62.26 64.27 63.02 61.67 61.07 60.19 60.93 59.21 61.37 60.27 50.11 48.52 51.43 51.19 51.13 53.84 52.41 53.78 54.90 54.13 54.10 56.45 57.53 60.94 64.06
58.10 58.88 59.40 60.22 61.33 61.48 61.58 62.02 62.23 62.55 62.56 62.84 63.09 62.75 62.20 62.01 58.37 56.02 62.40 64.33 64.05 64.06 60.09 57.26 56.33 58.32 54.72 56.83 57.93 54.51 49.85 51.28 55.18 53.28 51.80 53.64 53.26 53.38 51.50 52.03 53.10 56.19 58.97 62.89 62.99
57.30 58.07 58.50 59.39 60.33 61.04 61.21 61.46 61.60 62.14 62.08 62.17 62.46 62.21 61.64 61.30 54.79 55.21 63.57 64.22 63.70 63.03 60.61 60.00 58.51 56.94 52.89 53.75 55.00 54.14 50.08 54.60 54.98 53.79 54.19 53.45 51.56 53.33 51.63 50.55 53.53 54.35 57.55 60.71 60.88
56.90 57.27 57.84 59.06 59.51 60.32 61.07 61.00 61.34 61.76 61.93 61.81 61.86 61.85 61.25 59.14 43.41 57.22 61.93 64.41 63.88 61.99 59.68 57.67 55.82 51.66 49.80 48.79 53.73 49.55 53.45 54.95 55.93 53.84 53.47 53.10 53.88 50.76 51.56 51.72 55.47 56.25 60.00 60.23 60.17
55.95 56.50 57.27 58.03 59.13 59.36 59.76 60.80 60.95 61.39 61.45 61.69 61.55 61.52 58.88 53.15 53.25 59.22 61.34 63.08 61.05 60.35 56.88 55.30 53.11 51.72 48.10 49.24 50.44 49.37 51.50 53.40 55.09 53.90 53.12 54.10 51.80 52.07 52.43 55.04 54.76 56.95 58.63 59.27 59.87
54.79 55.43 56.25 57.00 58.18 58.67 59.72 59.73 60.61 60.76 61.21 61.56 61.46 60.46 55.31 48.25 59.67 60.79 60.90 60.73 59.32 58.48 56.34 55.81 53.94 54.31 51.12 49.82 48.21 50.37 51.59 51.75 53.41 53.78 54.06 52.22 52.55 53.26 53.20 55.76 55.65 54.67 53.78 56.70 59.22
54.30 54.52 55.47 56.13 56.91 58.18 58.79 59.74 60.41 60.21 60.65 61.64 61.65 58.79 53.37 50.93 59.79 60.50 60.37 59.64 59.73 58.75 55.46 56.91 56.77 54.32 52.28 49.04 53.06 51.90 47.90 49.72 49.75 52.58 52.44 53.87 49.89 50.70 55.03 56.45 55.43 55.21 53.08 54.62 56.15
53.69 54.18 54.28 55.36 56.16 57.10 58.16 59.29 59.61 59.80 59.95 61.08 61.21 56.76 48.22 58.14 60.06 59.60 60.29 58.64 60.18 60.14 58.44 58.98 59.82 56.10 53.21 52.88 51.03 46.71 46.34 41.32 46.76 50.14 51.44 50.89 43.24 50.91 54.71 55.06 54.32 55.00 54.69 55.84 56.90
52.64 53.23 53.77 54.21 55.26 56.09 57.33 58.19 59.00 59.53 59.99 60.06 55.45 52.69 45.62 58.01 54.63 58.70 59.44 56.14 57.90 58.77 59.02 59.47 57.93 52.57 52.36 46.42 42.53 44.97 36.49 39.41 42.11 47.69 48.41 49.26 44.36 49.13 51.66 51.59 52.41 53.43 53.93 54.89 55.65
52.40 52.62 53.45 54.05 54.71 55.51 56.79 57.09 57.97 58.36 58.07 56.98 53.34 48.09 49.39 48.59 54.70 57.21 59.01 58.15 54.85 55.26 53.98 53.60 51.90 46.53 45.45 42.54 33.27 36.78 38.79 40.32 39.19 44.54 47.61 44.86 45.10 48.66 50.88 49.61 50.38 50.54 52.26 52.79 53.87
51.83 52.07 52.95 53.74 54.16 54.42 54.27 53.43 48.16 47.89 51.86 46.17 44.73 45.37 47.73 52.75 56.28 54.61 57.19 55.25 54.61 52.12 45.42 49.43 44.02 40.60 43.14 45.04 43.93 41.88 40.12 38.10 42.72 45.90 45.00 43.44 44.45 47.03 49.15 47.49 46.86 48.92 50.84 51.41 52.30
51.56 52.11 52.35 53.55 53.86 54.49 52.73 47.36 49.08 51.11 44.08 49.11 47.25 48.26 51.14 53.04 48.42 52.33 56.61 50.11 48.87 43.62 46.48 44.62 41.18 45.39 46.81 46.20 44.47 42.87 40.15 39.18 43.06 45.38 43.92 42.81 42.92 46.32 47.99 47.65 47.97 48.63 49.03 49.58 50.97
50.87 51.48 52.07 52.97 53.85 51.78 48.21 48.63 54.35 52.62 42.04 44.36 46.33 46.21 47.32 51.46 47.27 48.79 52.86 50.25 46.16 43.99 43.77 40.35 42.20 47.09 45.33 43.67 41.89 41.35 39.69 39.72 39.68 42.82 43.93 43.13 40.11 42.79 46.67 48.65 49.70 50.28 50.84 50.64 50.38
50.65 50.81 51.52 52.31 48.35 48.14 45.82 50.68 53.59 51.64 35.71 36.88 41.03 43.64 47.40 49.78 44.72 52.21 53.96 49.97 46.82 42.36 43.90 42.84 45.89 44.04 42.84 41.81 42.81 38.09 42.74 41.96 40.48 37.96 32.99 40.74 30.93 39.20 42.86 44.45 47.23 48.78 48.42 49.33 50.21
49.98 50.33 50.68 51.25 46.05 44.20 47.37 51.61 52.28 48.16 23.84 39.06 40.77 48.39 48.14 45.01 45.69 47.37 54.01 49.77 43.37 43.34 43.38 40.23 42.16 41.93 40.49 42.21 44.25 40.25 43.75 41.78 40.73 37.81 36.00 35.77 32.72 35.06 41.40 40.71 43.81 45.81 48.13 49.30 50.49
49.70 49.91 50.87 48.74 47.34 47.69 50.21 51.33 48.57 31.96 22.99 34.39 40.25 40.10 40.65 43.65 44.27 48.10 48.48 50.68 49.22 43.82 44.04 42.42 44.87 44.21 43.28 45.12 45.51 44.41 41.62 40.82 40.24 37.88 30.03 33.88 33.56 32.03 37.75 40.69 42.46 44.50 47.10 48.45 48.31
49.35 49.77 48.90 48.57 42.54 49.20 49.64 45.60 30.04 24.49 35.33 32.01 35.40 39.19 38.74 38.48 40.58 43.59 42.66 41.87 38.60 34.32 34.84 38.55 40.50 42.92 45.29 41.67 44.64 42.85 38.10 29.37 26.58 27.74 25.67 35.70 33.37 35.32 40.44 42.41 42.07 42.94 44.12 45.31 47.95
49.23 49.32 48.11 47.66 48.79 48.65 45.74 36.33 23.08 30.26 31.73 37.43 37.19 38.82 35.72 38.61 38.54 40.00 39.17 38.01 41.88 39.91 35.53 33.47 31.57 39.19 43.75 41.87 38.97 40.09 37.90 27.85 19.50 22.75 24.38 33.01 26.99 33.41 42.16 44.28 44.80 44.84 45.59 46.87 47.07
48.68 45.52 44.69 46.72 48.76 47.49 38.57 27.18 27.02 31.90 35.80 35.57 36.65 33.93 34.62 37.91 37.47 38.15 38.51 37.48 40.79 41.66 33.86 33.41 33.32 41.03 42.48 43.41 42.73 38.77 35.13 38.61 30.58 23.83 23.59 28.74 33.05 38.81 41.30 41.57 42.09 43.32 43.52 43.95 44.79
43.02 41.65 41.03 47.18 48.41 43.27 33.29 29.44 31.39 37.84 38.62 38.45 32.15 35.11 31.83 34.87 35.31 35.97 36.62 40.10 39.94 42.73 43.47 37.77 31.78 38.78 40.24 42.63 42.05 40.12 41.44 31.81 33.12 20.42 18.13 25.41 27.10 30.15 35.48 38.48 40.95 41.53 42.23 43.40 44.38
41.67 35.60 41.97 47.07 45.74 36.11 27.68 29.45 32.50 39.07 40.54 36.32 34.85 33.47 34.76 34.64 36.05 35.41 35.89 38.92 41.98 41.32 44.12 40.50 36.24 34.72 38.44 36.56 36.65 37.32 35.97 36.44 35.08 31.03 23.57 21.06 25.52 37.50 38.24 38.00 38.61 38.75 42.55 43.12 43.94
38.50 29.64 43.31 45.37 32.72 32.00 29.31 32.17 36.06 36.49 40.80 39.33 38.82 36.84 35.20 36.38 34.88 34.72 34.84 38.30 43.27 42.96 38.65 41.45 36.89 30.02 34.04 38.05 40.02 40.64 37.18 36.83 31.15 26.91 29.24 28.25 27.73 40.48 38.65 39.41 38.27 41.15 42.91 42.88 43.18
33.23 34.43 43.32 41.85 26.04 28.77 31.29 32.05 34.73 32.99 35.81 37.21 36.39 38.92 39.86 35.96 32.75 36.38 37.50 41.96 43.26 41.57 39.50 39.17 33.80 27.67 28.67 32.99 36.02 35.74 38.23 39.22 37.75 33.78 28.78 23.61 28.84 41.56 40.66 36.59 38.50 40.35 41.37 42.30 42.62
35.05 27.83 35.26 36.79 34.40 29.70 28.95 29.45 30.05 35.57 36.37 38.47 37.62 39.60 37.56 35.44 36.90 34.60 36.28 39.56 43.07 42.66 42.47 41.56 33.84 30.83 26.54 30.20 33.25 32.27 35.45 37.38 36.78 31.41 30.40 29.86 31.04 36.48 37.65 37.16 38.45 39.99 40.73 40.28 39.84
34.77 30.56 34.30 26.39 29.48 30.80 32.90 31.15 28.91 30.94 34.76 38.92 36.53 36.73 36.06 33.27 33.76 33.51 36.84 37.78 41.27 42.56 40.68 37.08 32.02 30.82 32.41 31.53 35.24 33.32 33.94 35.76 34.58 35.18 30.70 33.29 33.03 36.68 39.04 38.87 38.45 39.69 40.28 41.06 40.99
32.13 32.99 34.44 33.48 33.21 30.42 30.75 31.41 29.62 31.93 34.16 32.56 33.91 37.71 38.26 33.70 35.59 33.31 35.51 35.99 36.91 39.66 38.46 38.15 32.07 31.24 27.08 32.52 30.79 29.70 32.75 35.02 35.77 35.94 35.23 35.10 34.09 40.87 42.28 40.60 39.14 39.31 40.05 40.15 40.32
38.97 39.86 35.48 34.06 31.45 29.74 29.05 30.35 32.65 34.33 34.97 35.62 37.27 35.67 36.54 37.93 40.55 41.06 40.14 38.94 39.42 37.95 36.36 33.29 32.79 30.86 27.69 31.70 29.86 24.78 28.20 31.11 33.62 36.77 36.36 32.01 36.93 41.12 40.08 40.64 39.71 38.19 40.20 40.06 40.03
MSLP
1015.63 1015.69 1015.90 1016.16 1016.38 1016.64 1016.75 1017.00 1017.28 1017.53 1017.70 1017.93 1018.04 1018.17 1018.30 1018.41 1018.34 1018.16 1017.29 1016.87 1016.81 1016.82 1016.79 1016.14 1015.52 1015.09 1014.77 1014.42 1014.37 1014.24 1014.10 1013.08 1012.56 1012.12 1012.12 1012.58 1012.82 1013.22 1013.27 1013.40 1013.79 1014.41 1015.09 1015.65 1016.80
1015.41 1015.56 1015.64 1015.78 1016.04 1016.31 1016.54 1016.73 1017.04 1017.30 1017.51 1017.73 1017.93 1018.11 1018.26 1018.36 1018.26 1017.36 1016.78 1016.65 1016.84 1016.91 1016.78 1016.37 1015.65 1015.28 1015.12 1014.69 1014.55 1014.50 1014.05 1013.36 1013.08 1013.06 1012.99 1012.85 1013.05 1013.31 1013.59 1013.70 1014.20 1015.01 1015.84 1016.45 1017.38
1015.12 1015.34 1015.45 1015.53 1015.66 1015.91 1016.19 1016.44 1016.71 1017.03 1017.28 1017.55 1017.72 1018.03 1018.34 1018.45 1018.13 1016.46 1016.19 1016.26 1016.69 1016.99 1016.87 1016.55 1016.29 1015.89 1015.57 1014.90 1014.68 1014.46 1014.21 1013.70 1013.68 1013.99 1013.75 1013.42 1013.50 1013.27 1013.56 1013.66 1013.70 1014.50 1015.66 1016.52 1017.18
1014.75 1015.01 1015.22 1015.39 1015.56 1015.67 1015.85 1016.07 1016.48 1016.80 1017.09 1017.30 1017.60 1017.92 1018.21 1018.43 1017.68 1016.48 1016.37 1016.32 1016.58 1016.78 1016.76 1016.55 1016.42 1016.33 1015.84 1015.40 1014.94 1014.82 1014.44 1014.18 1014.23 1014.62 1014.53 1014.22 1014.25 1013.77 1013.86 1013.67 1013.48 1013.61 1014.65 1015.84 1016.75
1014.39 1014.65 1014.89 1015.07 1015.26 1015.40 1015.54 1015.97 1016.24 1016.61 1016.89 1017.13 1017.46 1017.87 1018.37 1017.91 1016.51 1016.50 1016.49 1016.71 1016.89 1016.98 1016.63 1016.49 1016.36 1016.26 1016.09 1015.48 1015.33 1014.97 1014.95 1014.73 1014.49 1015.09 1015.13 1014.91 1014.83 1014.54 1014.15 1013.67 1013.73 1013.98 1014.75 1015.68 1016.33
1014.06 1014.31 1014.47 1014.71 1014.94 1015.19 1015.38 1015.69 1016.04 1016.33 1016.60 1016.94 1017.29 1017.75 1017.96 1016.85 1015.75 1015.95 1016.29 1016.93 1016.68 1016.73 1016.58 1016.37 1016.21 1016.07 1016.02 1015.73 1015.60 1015.22 1015.29 1015.32 1014.94 1015.25 1015.40 1015.52 1015.13 1014.75 1014.19 1013.87 1013.99 1014.20 1014.80 1015.15 1015.47
1013.62 1013.97 1014.19 1014.42 1014.69 1014.95 1015.19 1015.33 1015.56 1015.97 1016.49 1016.65 1017.06 1017.57 1017.30 1015.91 1015.44 1015.50 1016.22 1016.55 1016.63 1016.78 1016.67 1016.47 1016.41 1016.59 1016.36 1016.42 1016.12 1015.86 1016.02 1015.74 1015.23 1015.18 1015.49 1015.64 1015.39 1014.66 1014.34 1014.07 1014.19 1014.17 1014.41 1014.61 1014.69
1013.22 1013.56 1013.89 1014.17 1014.43 1014.71 1015.02 1015.07 1015.30 1015.68 1016.14 1016.43 1016.87 1017.32 1016.22 1015.55 1015.69 1015.79 1016.04 1016.23 1016.55 1016.84 1016.86 1016.83 1017.02 1016.98 1016.99 1017.06 1016.84 1016.83 1016.89 1016.45 1015.42 1015.34 1015.46 1015.93 1014.95 1014.38 1013.97 1013.98 1013.88 1013.88 1013.89 1013.94 1014.07
1012.69 1013.10 1013.52 1013.82 1014.13 1014.43 1014.71 1014.86 1014.98 1015.31 1015.73 1016.34 1017.10 1017.07 1015.83 1015.29 1015.30 1015.90 1016.10 1016.41 1016.84 1017.08 1017.20 1017.26 1017.51 1017.32 1017.41 1017.40 1017.48 1017.31 1016.86 1016.45 1015.80 1015.12 1015.19 1015.59 1015.15 1014.37 1013.87 1013.67 1013.54 1013.43 1013.59 1013.48 1013.56
1011.97 1012.50 1012.98 1013.39 1013.83 1014.14 1014.48 1014.73 1014.88 1015.27 1015.42 1016.15 1016.33 1017.27 1015.05 1014.05 1014.93 1015.69 1016.15 1016.42 1016.86 1017.32 1017.80 1017.81 1017.77 1017.52 1017.32 1017.28 1016.66 1016.82 1016.86 1016.38 1015.69 1015.16 1015.18 1015.46 1015.21 1014.61 1014.11 1013.95 1013.64 1013.43 1013.49 1013.51 1013.28
1011.35 1011.84 1012.30 1012.90 1013.43 1013.86 1014.49 1014.91 1015.24 1015.12 1014.37 1013.19 1013.73 1013.40 1012.38 1013.32 1014.61 1015.14 1015.77 1016.32 1016.70 1017.12 1017.26 1017.59 1017.52 1016.56 1016.87 1017.04 1016.88 1016.44 1016.32 1016.21 1015.64 1015.29 1015.53 1015.64 1015.48 1015.04 1014.18 1014.06 1013.78 1013.65 1013.28 1013.16 1013.02
1010.58 1011.14 1011.70 1012.32 1012.90 1013.33 1013.90 1013.78 1013.01 1013.36 1013.77 1013.43 1013.35 1014.25 1013.30 1013.40 1014.24 1014.87 1015.46 1015.79 1016.10 1016.24 1016.80 1017.28 1015.96 1016.60 1016.83 1016.83 1016.83 1016.59 1016.46 1016.37 1016.12 1015.58 1015.90 1016.03 1015.67 1015.36 1014.47 1013.42 1013.23 1013.13 1012.97 1012.99 1012.81
1009.69 1010.36 1011.06 1011.74 1012.35 1013.10 1013.17 1012.90 1013.03 1013.25 1014.06 1013.74 1013.16 1013.34 1013.30 1013.52 1013.50 1014.06 1014.89 1015.07 1015.52 1016.05 1015.90 1015.76 1015.48 1016.33 1016.18 1016.39 1016.68 1016.80 1016.81 1016.85 1016.87 1016.50 1016.48 1016.70 1015.13 1014.53 1013.81 1013.09 1012.46 1012.22 1012.30 1012.59 1012.74
1008.93 1009.69 1010.50 1011.26 1012.67 1012.37 1012.30 1012.85 1013.52 1013.86 1013.73 1013.54 1013.41 1013.30 1013.15 1013.64 1013.50 1013.39 1014.08 1014.43 1014.98 1014.95 1015.70 1015.65 1015.56 1015.67 1015.79 1015.82 1016.51 1016.66 1016.99 1017.36 1017.62 1018.05 1017.88 1017.47 1015.46 1014.05 1013.25 1012.69 1012.06 1011.65 1011.86 1012.22 1012.35
1008.16 1008.95 1009.83 1010.70 1010.76 1011.44 1011.31 1012.59 1013.65 1014.57 1012.14 1011.59 1012.59 1013.01 1012.46 1013.07 1012.67 1012.44 1013.55 1014.49 1013.99 1014.27 1015.17 1014.45 1014.66 1015.16 1015.40 1015.27 1016.11 1016.61 1017.10 1017.94 1018.50 1018.88 1018.85 1018.63 1018.00 1013.98 1013.25 1012.60 1011.65 1011.07 1011.16 1011.46 1011.61
1007.27 1008.28 1009.28 1010.08 1010.58 1010.32 1011.70 1012.58 1013.84 1012.93 1009.28 1010.58 1010.82 1011.79 1012.70 1012.84 1012.35 1012.35 1013.35 1014.18 1014.06 1014.46 1014.41 1014.54 1014.46 1014.59 1014.36 1015.30 1015.86 1016.94 1017.94 1018.95 1019.47 1019.90 1019.12 1018.69 1018.14 1013.30 1012.71 1011.78 1011.04 1010.92 1010.86 1011.05 1011.33
1006.66 1007.65 1008.68 1009.35 1009.22 1010.39 1011.02 1012.03 1011.63 1008.71 1008.11 1009.79 1009.77 1010.35 1011.57 1011.97 1012.29 1012.13 1012.65 1013.41 1013.68 1014.41 1014.53 1014.83 1015.10 1014.68 1014.35 1015.19 1015.83 1016.78 1018.16 1019.72 1020.40 1020.45 1018.35 1017.29 1017.16 1012.85 1011.38 1011.08 1011.19 1011.16 1011.18 1011.41 1011.39
1006.04 1007.18 1007.91 1008.50 1009.33 1010.03 1010.57 1010.29 1008.20 1007.60 1008.44 1008.48 1009.02 1009.67 1009.85 1010.81 1011.81 1011.77 1012.22 1012.64 1013.63 1013.38 1014.20 1014.67 1015.65 1015.01 1014.46 1014.41 1015.22 1016.43 1017.14 1017.65 1018.94 1019.31 1017.96 1017.60 1015.13 1012.51 1011.54 1011.06 1010.95 1010.84 1011.37 1011.67 1011.99
1005.74 1007.03 1007.74 1008.01 1008.93 1009.65 1009.64 1007.58 1006.43 1006.57 1007.44 1008.39 1008.71 1009.11 1009.22 1009.83 1010.00 1011.24 1011.25 1011.66 1012.00 1012.29 1012.83 1013.93 1014.53 1014.65 1014.50 1014.83 1015.33 1016.36 1016.34 1017.11 1018.29 1018.88 1018.47 1016.43 1014.00 1012.50 1011.49 1011.34 1011.09 1011.39 1011.52 1012.02 1012.71
1005.57 1006.65 1006.74 1007.26 1008.44 1009.32 1008.59 1007.00 1006.58 1006.35 1006.93 1007.09 1006.82 1007.57 1007.97 1008.77 1009.23 1009.83 1010.49 1010.62 1011.33 1011.59 1011.60 1012.59 1014.29 1014.76 1015.45 1015.34 1015.08 1015.17 1016.39 1017.64 1018.14 1018.71 1017.99 1015.71 1014.15 1012.30 1011.41 1011.42 1011.23 1011.45 1011.83 1012.38 1013.04
1005.41 1005.97 1005.53 1006.97 1008.22 1008.15 1006.38 1006.64 1006.71 1006.21 1006.33 1006.08 1006.14 1006.79 1007.39 1007.78 1008.62 1008.91 1009.15 1009.73 1010.37 1011.38 1011.85 1012.46 1013.36 1015.64 1016.03 1015.69 1015.12 1015.96 1015.82 1016.25 1016.90 1017.37 1016.30 1015.40 1013.33 1011.43 1011.04 1011.27 1011.35 1011.67 1012.01 1012.53 1013.18
1004.70 1005.42 1005.23 1006.53 1007.02 1006.89 1006.50 1006.28 1006.34 1005.84 1005.77 1005.65 1005.56 1005.85 1006.55 1007.42 1008.10 1008.13 1008.09 1008.21 1009.03 1009.86 1011.23 1012.28 1014.24 1015.25 1015.41 1015.69 1015.66 1015.37 1014.97 1015.30 1015.47 1015.71 1015.79 1015.01 1012.81 1010.41 1010.54 1010.85 1011.15 1011.91 1012.20 1012.63 1012.85
1004.30 1004.79 1005.30 1005.96 1005.74 1005.98 1006.31 1006.52 1006.54 1006.87 1005.59 1005.57 1005.37 1004.48 1005.12 1006.20 1007.34 1007.30 1007.20 1007.71 1008.17 1009.56 1010.17 1012.19 1013.81 1015.02 1016.35 1016.89 1016.13 1015.40 1014.93 1014.75 1014.82 1014.95 1014.95 1014.74 1012.36 1011.18 1010.25 1010.37 1010.65 1011.51 1012.07 1012.36 1012.72
1004.19 1004.60 1004.94 1005.58 1005.96 1005.83 1006.19 1006.21 1006.45 1006.66 1006.09 1005.36 1004.76 1004.83 1004.56 1005.48 1006.23 1006.60 1007.20 1007.81 1008.39 1009.32 1010.73 1011.62 1012.97 1012.79 1012.86 1012.68 1014.24 1015.13 1014.34 1014.24 1014.10 1014.26 1013.42 1013.01 1012.04 1010.76 1010.69 1010.64 1010.98 1011.31 1011.43 1011.99 1012.40
1003.58 1003.63 1003.73 1004.18 1005.42 1005.59 1005.67 1005.64 1005.74 1006.21 1006.22 1005.31 1004.87 1004.33 1004.40 1004.84 1005.87 1005.96 1007.26 1008.14 1008.71 1009.66 1010.95 1012.01 1012.76 1013.24 1012.70 1012.74 1012.57 1012.74 1013.05 1013.20 1013.12 1012.37 1012.40 1011.09 1011.40 1010.29 1009.27 1009.80 1010.60 1010.82 1011.30 1011.73 1012.11
1002.94 1003.20 1003.75 1003.96 1004.08 1004.75 1004.61 1004.24 1004.51 1005.28 1005.68 1005.39 1005.14 1003.93 1003.43 1003.75 1004.27 1005.49 1006.26 1007.32 1007.75 1009.89 1010.69 1011.83 1012.35 1013.27 1013.52 1013.30 1013.22 1012.91 1012.72 1012.58 1011.80 1010.91 1011.18 1010.53 1010.22 1009.50 1008.68 1009.34 1009.89 1010.38 1010.70 1011.19 1011.43
1002.62 1002.87 1003.02 1003.21 1003.82 1004.28 1004.08 1004.59 1004.15 1004.35 1004.47 1005.16 1004.44 1004.36 1003.31 1002.45 1003.76 1004.55 1005.69 1006.98 1007.72 1009.20 1010.39 1011.65 1012.60 1013.21 1013.08 1013.71 1014.33 1013.46 1010.93 1010.70 1011.23 1010.70 1009.83 1009.86 1008.66 1008.71 1008.57 1008.42 1009.24 1009.78 1010.03 1010.26 1010.65
Wind_Speed
12 11 9 16 16 14 13 12 11 8 7 6 5 5 3 3 4 6 8 3 5 8 8 10 7 7 7 5 1 3 3 5 5 1 4 6 5 2 3 4 0 3 8 10 16
13 12 11 11 17 15 14 13 12 11 9 7 6 6 4 3 8 12 3 7 3 4 4 6 6 3 5 3 2 3 3 7 5 9 8 8 6 8 3 5 4 6 5 13 12
14 13 12 11 10 16 16 14 12 11 10 8 7 6 7 6 6 8 5 13 7 2 7 5 7 6 8 7 6 4 6 10 8 8 9 4 2 1 4 5 8 11 11 11 9
15 14 13 12 11 13 17 14 13 12 11 9 7 8 8 6 7 3 7 2 9 7 7 5 5 4 4 7 8 9 9 7 3 5 6 6 7 2 5 2 7 5 16 12 11
15 14 12 12 11 10 13 18 15 13 12 11 9 10 4 5 7 5 5 4 7 7 9 8 8 7 7 4 9 9 7 11 1 3 5 6 5 6 7 8 5 8 7 11 9
15 13 14 11 10 11 12 15 18 15 13 12 10 12 5 11 3 6 6 7 6 7 8 8 3 7 7 9 8 4 7 14 7 4 3 3 7 6 5 10 9 9 5 6 10
15 15 12 13 12 11 11 13 17 15 14 14 12 9 13 13 1 7 5 6 6 7 6 6 6 3 0 6 9 4 8 9 10 8 5 3 8 12 8 8 7 6 9 9 9
16 14 13 13 13 12 12 12 15 15 16 14 11 9 8 13 9 3 7 5 5 5 6 4 2 5 2 3 2 1 5 4 5 7 8 6 11 11 9 13 13 11 9 8 11
18 16 14 14 14 12 11 9 15 17 16 14 7 8 11 6 12 8 7 8 7 3 1 1 2 4 5 4 4 6 4 10 9 11 8 10 7 9 12 12 9 7 6 8 9
20 18 16 15 15 12 10 5 5 10 13 9 7 8 11 16 12 13 8 11 8 10 5 5 5 6 6 8 8 6 8 9 8 6 8 10 11 11 11 8 7 5 6 8 8
22 21 18 18 17 16 11 3 5 6 10 8 15 11 2 15 16 17 13 13 8 11 8 10 6 14 13 13 11 9 8 3 8 8 8 9 10 14 15 10 10 9 9 9 8
23 22 20 19 20 19 12 10 11 4 9 17 12 22 2 15 12 18 17 14 10 12 13 6 17 12 12 13 13 11 10 7 9 4 2 7 14 13 15 14 9 10 9 9 8
24 23 22 21 20 15 15 20 1 6 2 5 13 18 20 10 13 20 22 14 15 15 18 17 4 15 13 11 14 13 12 8 6 5 5 5 20 20 15 21 19 13 12 8 9
25 24 23 22 15 13 18 16 5 2 8 6 11 5 22 9 10 17 20 17 9 21 16 14 16 17 15 18 12 14 6 5 2 3 4 4 10 9 8 10 18 18 10 9 9
23 23 25 26 8 17 16 11 8 2 20 19 12 5 7 16 10 15 20 18 14 13 12 8 15 17 17 17 14 7 8 9 6 5 5 7 10 5 7 10 11 6 10 10 10
21 24 25 16 10 14 13 14 5 13 16 9 16 17 16 23 14 15 18 11 5 11 14 12 2 12 14 12 10 8 7 7 4 2 10 7 9 5 10 11 7 4 8 8 5
22 25 22 12 18 12 14 10 13 17 13 9 11 22 27 19 21 13 21 21 10 9 10 5 1 2 4 9 7 12 11 2 2 5 8 11 12 15 11 10 6 6 4 2 5
23 23 20 13 12 12 9 12 17 27 8 6 12 27 29 28 25 19 23 18 14 13 7 12 10 10 6 8 8 17 14 7 9 7 4 8 10 8 5 5 5 2 5 5 7
22 11 10 13 14 10 11 19 19 9 11 15 22 25 19 23 15 20 18 24 19 19 12 13 12 5 5 6 14 12 19 9 3 2 2 7 6 10 6 6 7 6 5 6 9
11 9 14 16 15 12 12 21 10 9 13 16 15 20 24 26 17 24 20 21 23 22 15 7 6 5 7 2 10 11 7 7 4 5 5 6 7 6 2 5 4 7 9 9 8
7 7 8 15 13 9 9 7 11 16 14 17 10 12 14 18 13 23 19 12 24 23 22 11 7 3 6 10 12 7 14 8 5 7 6 2 6 11 13 3 5 2 9 9 7
6 7 9 14 14 6 12 10 17 18 15 12 12 10 16 23 17 19 20 20 30 25 29 13 4 5 12 3 4 18 9 19 9 8 5 3 7 7 4 4 2 9 8 7 5
5 5 7 15 12 10 16 4 8 13 16 15 7 13 16 24 20 17 22 18 22 26 21 12 7 6 4 2 4 8 14 16 18 3 9 6 10 13 11 3 5 11 9 8 7
4 6 5 7 6 18 11 17 11 11 12 20 15 14 19 20 8 21 15 4 20 23 11 13 5 10 13 13 11 13 20 18 19 14 17 10 9 15 11 8 8 9 9 6 3
3 5 4 5 13 11 9 15 17 10 13 18 13 28 19 12 15 7 6 5 6 19 12 9 13 6 4 4 11 15 18 26 24 25 17 23 20 21 22 13 8 9 8 6 6
5 3 3 2 13 20 21 8 21 15 6 19 15 20 24 13 14 17 19 15 18 15 17 10 6 6 3 4 7 3 11 19 26 28 22 18 16 20 24 9 8 9 8 8 8
2 2 3 7 7 12 16 11 12 18 14 11 21 18 25 22 16 15 7 10 13 16 10 12 8 8 9 10 4 2 24 16 13 20 23 21 26 23 22 20 11 4 7 10 9
Wind_Direction
264 261 258 253 243 226 220 218 216 214 217 239 223 235 239 265 279 244 246 81 55 17 334 297 268 272 291 270 211 286 278 271 321 101 96 136 148 269 16 108 93 81 46 95 127
256 261 255 255 246 241 223 215 214 207 209 218 222 202 200 237 272 267 193 131 86 28 292 286 296 294 262 228 249 239 249 271 39 19 14 147 215 152 184 193 145 107 77 116 138
251 253 255 254 255 248 234 217 212 206 202 208 209 196 183 203 271 244 305 159 154 215 254 302 295 302 261 268 206 222 239 274 35 32 350 350 217 55 205 220 188 179 155 150 158
240 245 250 251 249 251 233 223 211 202 199 197 201 180 186 220 230 62 22 159 152 218 227 219 222 246 225 234 217 269 272 282 71 30 340 350 342 22 274 294 43 56 157 158 176
250 239 244 248 251 249 238 241 217 201 195 190 190 173 162 212 239 119 98 133 167 214 208 208 216 214 229 242 251 254 271 291 80 102 298 332 285 272 298 293 99 64 103 162 186
248 252 233 239 245 242 234 240 226 204 189 189 186 166 221 231 219 128 90 149 187 199 214 213 226 250 286 251 253 259 234 260 232 200 206 276 282 269 220 235 273 142 192 207 190
239 240 243 228 234 238 238 233 229 207 193 187 185 181 229 219 15 200 161 173 199 212 199 230 258 282 144 296 313 5 303 289 260 192 240 224 260 246 250 273 268 239 193 218 219
237 234 232 229 227 231 233 237 220 218 196 188 183 202 240 220 252 250 169 192 183 233 255 207 42 270 266 47 15 297 274 271 231 227 227 206 256 261 233 224 234 235 217 228 221
229 229 224 227 223 229 233 231 216 217 203 176 181 209 230 188 206 189 171 160 148 149 201 43 215 229 156 196 185 193 237 222 265 231 199 185 261 258 240 257 256 230 260 235 239
224 220 219 219 220 220 221 194 214 221 203 178 215 181 245 206 182 170 196 154 148 154 146 196 211 201 211 191 195 189 201 249 262 217 199 234 245 260 278 295 277 268 244 259 265
225 217 213 217 216 214 207 190 155 208 218 207 184 208 103 172 172 187 185 165 171 176 178 203 194 205 191 215 220 259 232 278 234 261 188 232 254 262 274 264 247 246 228 233 245
219 217 215 211 213 213 203 219 216 114 228 191 219 212 233 170 171 183 181 174 189 197 194 175 224 204 216 202 232 234 251 252 288 271 71 305 281 282 281 268 235 242 244 238 245
214 215 213 207 210 210 210 216 323 89 260 229 205 191 208 185 183 189 181 192 186 197 200 205 188 213 211 216 202 223 232 238 253 343 299 293 278 253 236 248 259 243 237 240 246
216 207 208 200 203 203 216 207 231 115 223 193 196 218 202 192 220 183 193 178 182 202 195 227 222 199 210 213 203 223 201 264 297 330 247 90 287 294 317 261 239 248 220 230 237
209 206 207 194 187 198 206 186 126 148 231 167 166 173 198 190 148 193 182 214 203 185 189 201 185 204 207 214 200 214 187 216 231 245 311 251 283 254 204 264 273 225 186 199 221
207 202 206 202 203 209 195 146 141 211 206 178 144 164 177 202 209 148 178 209 224 208 211 212 97 203 212 193 201 123 93 55 61 43 256 183 218 219 220 229 229 204 185 200 225
202 201 198 191 205 191 185 165 209 214 137 159 165 169 176 184 206 175 181 190 177 171 205 226 251 299 176 170 152 144 139 142 203 202 239 169 202 242 283 314 292 293 327 349 95
196 196 204 203 191 189 187 208 221 211 197 151 164 170 184 174 201 195 184 186 206 198 158 182 204 210 192 201 177 179 175 169 183 200 241 188 236 231 138 53 49 89 85 76 42
187 192 199 199 190 187 216 218 205 157 162 167 167 179 184 187 163 187 189 196 187 192 172 186 221 178 188 194 151 185 216 197 71 9 36 209 264 314 265 295 280 207 243 168 97
181 187 206 187 185 190 220 226 190 198 155 178 165 185 184 180 172 187 183 195 198 205 196 180 199 183 188 179 228 185 146 178 187 201 233 243 240 238 143 199 190 167 119 109 113
168 187 190 182 179 202 221 215 201 199 203 172 170 167 192 181 185 183 179 171 196 198 215 214 191 195 130 206 179 189 197 206 159 225 198 217 237 190 221 139 161 152 125 127 149
153 190 162 163 202 209 232 152 209 207 200 220 211 144 182 179 188 185 191 196 196 185 198 200 131 164 201 44 266 213 210 201 200 203 239 278 252 297 297 327 188 132 126 138 175
158 163 166 167 208 198 211 237 183 226 206 204 229 178 167 183 193 190 193 198 186 191 188 156 199 133 115 30 305 213 221 215 225 236 195 182 248 243 291 328 267 140 157 187 191
150 162 177 191 208 239 220 206 192 221 255 218 218 257 180 184 207 197 175 163 169 195 146 151 168 215 197 211 128 203 220 224 213 219 224 222 252 260 248 229 147 170 187 174 178
191 197 185 167 196 222 187 207 187 198 225 215 234 195 210 176 183 149 128 136 175 167 147 151 201 207 265 27 190 195 200 207 210 219 210 224 222 245 254 237 205 197 150 158 220
130 180 127 108 196 201 212 202 189 196 199 227 222 226 197 181 185 175 165 181 180 167 170 173 231 173 204 28 346 231 199 212 216 223 227 237 236 238 256 238 230 218 174 202 217
121 103 89 187 166 194 204 213 217 194 201 257 231 203 204 192 184 182 145 136 150 175 160 158 171 170 222 156 146 267 231 218 227 228 222 225 235 239 250 258 243 264 245 232 202